Location: Ar Ranvel
(48.3000°N, 4.8833°W)
Time: 09:27:23
(UTC+00:00)

Cosmos 1300 - Pass Details

Date: 16 June 2021
Orbit: 509 x 513 km, 82.5° (Epoch: 03 August)

Event Time Altitude Azimuth Distance (km) Brightness Sun altitude
Rises 22:02:33 0° 355° (N) 2,641 7.5 -12.0°
Reaches altitude 10° 22:04:46 10° 2° (N) 1,748 6.3 -12.1°
Maximum altitude 22:08:27 44° 76° (ENE) 715 3.2 -12.5°
Enters shadow 22:10:43 20° 140° (SE) 1,211 3.9 -12.7°
